Theta_e
299 299 299 299 299 299 299 299 299 299 299 299 299 299 299 299 299 300 300 300 297 299 301 303 306 304 306 314 316 311 308 308 310 311 313 311 309 310 311 313 313 316 319 321 320 320 320
299 299 299 299 298 299 299 299 299 299 298 298 299 298 298 299 299 300 299 295 298 302 303 305 305 306 310 312 309 310 309 311 311 313 313 310 309 309 310 311 312 315 316 319 320 319 320
299 299 299 298 299 298 298 298 299 298 298 298 298 297 298 299 299 297 295 297 302 304 304 306 304 307 311 311 311 311 311 309 308 309 309 312 312 310 310 311 313 314 314 316 318 319 319
299 301 299 299 299 298 298 298 298 298 298 298 297 296 297 297 297 296 297 304 305 305 306 305 303 310 312 310 313 312 311 311 310 310 311 311 312 311 312 311 312 313 314 316 318 320 319
297 297 297 298 298 297 298 297 297 297 297 297 296 296 295 296 298 297 305 307 307 306 307 305 305 311 316 312 312 312 309 308 309 310 311 311 311 310 310 310 309 312 312 316 318 319 322
297 297 297 298 297 298 298 297 297 297 296 296 295 296 294 297 298 302 306 309 309 308 310 311 310 312 312 310 311 311 310 308 308 309 310 309 309 308 307 307 309 311 313 314 317 319 320
297 297 297 297 297 297 297 297 296 296 296 295 294 295 294 299 299 303 305 308 306 312 312 315 314 311 312 312 310 311 311 310 309 308 308 309 307 307 306 307 309 310 310 310 314 316 319
297 297 297 297 296 296 296 296 296 296 296 295 294 294 294 300 300 303 305 305 305 307 310 309 310 311 313 314 313 311 311 309 308 306 308 309 308 308 310 310 310 310 310 310 310 312 315
297 296 296 296 296 296 296 296 296 295 295 294 294 293 294 300 302 305 304 303 305 310 311 310 310 310 310 310 311 311 310 309 309 307 307 307 310 312 311 310 311 310 310 310 311 312 312
296 296 296 296 296 296 296 295 295 295 295 293 292 292 295 300 304 307 305 304 304 308 312 314 312 312 311 310 310 310 310 309 309 308 308 308 310 311 310 311 311 310 310 311 311 311 311
296 296 296 295 296 296 295 295 295 295 295 293 291 292 295 301 301 305 303 303 306 310 314 314 312 311 311 310 311 311 311 310 309 309 309 308 310 310 310 310 310 310 312 311 311 309 310
294 295 296 295 295 295 295 295 294 294 294 293 291 294 296 301 302 303 302 306 309 318 306 310 313 312 311 312 312 311 311 310 310 309 309 309 309 310 310 311 311 311 310 309 309 309 310
294 294 294 295 295 295 295 294 293 293 293 292 292 296 299 301 302 300 304 307 318 311 313 310 310 309 309 310 311 312 311 309 307 309 308 309 309 308 310 310 311 310 309 308 308 308 310
293 293 293 294 295 295 294 294 293 293 292 291 293 298 302 302 296 301 306 313 312 314 309 307 306 308 309 309 309 309 310 309 308 308 309 309 310 309 310 309 309 309 308 310 310 309 309
293 293 293 293 294 294 294 293 293 292 292 290 295 298 300 297 298 301 308 311 310 309 306 305 306 308 308 310 310 310 310 312 310 310 313 315 312 311 312 310 310 310 310 309 310 312 311
293 293 293 293 293 293 294 293 293 292 292 291 294 297 300 297 300 304 311 311 309 303 302 303 306 308 308 308 309 309 312 309 309 308 309 313 316 314 314 313 312 310 310 310 310 311 312
293 293 293 293 293 293 293 293 293 293 293 291 295 299 298 298 303 304 311 306 304 302 302 302 304 305 306 306 306 307 311 309 306 305 308 306 313 316 314 314 313 313 310 311 311 312 313
293 292 292 293 292 292 293 293 293 292 293 292 295 298 298 298 299 300 304 300 301 299 300 301 302 303 303 302 303 304 306 308 304 304 302 303 308 315 314 313 312 311 312 313 311 310 311
292 292 292 292 292 292 293 293 293 292 294 293 293 296 297 298 294 293 299 298 299 297 297 297 297 297 300 301 301 303 304 304 298 301 302 301 306 310 310 310 310 311 312 312 313 315 314
292 292 292 293 292 292 293 293 293 291 292 293 294 295 296 296 297 296 297 298 298 297 296 295 296 296 299 296 297 297 297 297 297 297 302 302 305 309 311 311 308 310 310 310 312 317 317
292 292 293 293 292 293 293 293 293 292 291 293 293 293 294 291 292 294 296 296 297 296 295 295 295 295 295 294 294 295 295 294 294 297 296 297 303 303 304 304 304 305 304 306 310 311 315
292 292 293 293 293 293 293 293 293 293 291 293 291 289 291 292 293 293 296 296 297 295 295 294 294 294 294 293 294 294 293 293 293 294 293 294 299 298 301 302 302 302 302 302 306 309 310
293 293 293 293 293 293 292 293 293 293 292 292 293 293 292 292 292 293 295 295 295 295 295 294 295 294 293 294 294 293 292 292 293 292 292 293 294 297 299 299 300 299 301 301 303 307 309
293 293 293 293 293 292 292 292 293 293 292 292 292 292 293 291 291 292 294 294 293 294 294 294 293 293 294 294 293 293 292 293 293 293 293 293 293 294 296 295 291 297 301 302 303 305 306
292 292 292 292 292 292 292 292 292 292 292 292 291 292 294 292 292 292 293 293 293 292 292 293 293 294 292 292 292 293 292 293 294 294 294 294 294 294 292 296 296 296 297 299 300 300 302
292 292 292 292 292 292 292 292 292 292 292 292 292 291 292 293 291 293 293 292 292 291 292 292 293 292 292 291 291 286 291 292 292 293 295 294 295 295 296 296 294 299 299 299 299 299 302
292 292 292 292 292 292 292 292 292 292 292 292 292 292 291 293 291 292 292 292 292 293 293 292 291 291 291 289 284 289 292 292 292 292 293 293 294 297 298 297 297 298 299 301 302 307 303
292 292 292 292 292 292 292 292 292 292 292 292 292 292 292 292 291 292 292 292 292 292 292 291 292 291 291 287 289 289 292 291 292 292 292 292 293 295 297 299 298 298 300 301 302 299 300
292 292 292 292 292 292 292 292 292 292 292 292 292 291 291 291 292 292 291 291 292 292 292 292 292 292 292 290 286 286 290 291 291 291 291 294 295 296 295 297 295 294 297 298 299 297 297
Wind_Speed
27 27 27 28 29 29 30 31 31 32 32 33 33 34 35 35 34 33 32 30 27 21 18 16 15 14 5 3 9 7 4 3 3 4 7 7 6 6 7 5 9 11 15 15 14 10 2
27 27 28 29 30 30 31 32 33 33 34 35 35 36 39 38 36 35 32 29 22 19 17 15 11 8 1 5 9 8 4 5 7 12 15 11 7 9 9 9 7 7 12 14 9 7 4
27 27 28 29 30 31 33 33 34 35 36 37 38 42 42 40 38 35 32 23 20 18 15 10 7 3 5 16 7 5 8 7 10 15 6 17 7 4 6 8 8 10 12 11 11 6 6
27 27 28 29 29 31 33 34 35 36 38 39 41 46 47 43 37 35 24 21 20 15 11 6 5 4 8 13 9 14 12 15 12 13 12 14 12 4 2 7 10 7 6 6 8 4 6
27 27 28 29 30 32 33 35 36 37 39 41 46 48 49 40 38 27 25 26 18 10 6 5 3 4 8 10 8 20 14 13 16 18 13 13 6 3 6 3 6 4 5 7 9 6 5
27 29 29 29 30 32 33 35 37 39 41 45 49 49 49 38 33 24 31 19 5 7 4 5 9 4 8 4 5 8 8 18 8 5 5 5 2 3 3 2 9 4 5 7 6 12 6
27 29 30 30 31 33 34 35 37 40 43 46 49 50 46 36 27 23 32 7 6 2 5 8 5 6 4 1 2 3 9 8 5 4 6 6 3 6 10 12 11 11 10 10 7 12 6
27 28 29 30 32 32 33 35 37 40 42 46 49 51 42 33 22 18 20 8 9 5 10 12 21 20 30 20 7 7 11 6 6 8 5 6 8 11 13 13 10 14 16 16 12 14 7
28 29 29 29 31 31 33 35 37 40 43 47 49 50 36 34 12 14 15 21 15 15 4 10 9 7 8 12 11 13 6 4 7 8 9 9 9 15 15 13 10 7 7 9 11 16 13
29 29 30 30 31 32 34 35 37 39 43 47 50 47 34 34 4 25 5 26 17 12 3 4 6 2 5 2 4 13 22 9 7 13 8 11 9 14 12 8 9 10 11 11 8 8 7
28 30 30 31 32 33 35 37 38 40 44 48 51 43 28 15 16 8 21 25 17 3 4 9 5 4 3 6 7 0 17 7 10 9 6 8 6 8 10 7 8 7 6 5 4 7 4
29 30 31 32 33 34 36 39 42 45 47 49 51 35 25 17 18 17 23 20 11 2 4 3 4 5 4 8 4 5 2 6 3 7 11 8 9 6 5 8 8 3 5 6 3 2 2
28 29 30 32 34 35 37 40 45 47 50 53 50 27 14 15 9 24 22 8 1 3 10 10 11 10 14 8 9 7 6 5 5 1 5 10 15 9 9 8 5 3 3 2 3 2 7
27 29 30 31 33 35 38 41 45 48 51 56 45 16 11 3 21 20 12 1 3 6 6 9 12 13 5 4 6 12 5 6 7 7 9 7 6 13 11 12 8 8 7 5 6 6 11
27 28 29 30 32 35 37 41 43 47 51 56 38 21 7 28 23 16 2 2 1 8 7 11 12 5 5 7 10 12 5 6 8 14 4 5 7 13 9 10 10 8 11 9 8 8 4
26 27 29 30 31 33 37 39 42 45 49 52 33 9 7 34 25 3 1 1 4 8 10 8 6 10 7 15 12 15 5 13 8 14 10 7 6 6 10 8 8 15 9 7 4 4 7
26 27 28 29 30 32 35 37 39 43 46 47 16 4 24 31 10 3 2 4 5 9 12 9 8 8 10 9 12 8 11 10 16 15 10 10 4 6 6 1 5 9 2 3 5 5 6
25 26 27 28 29 30 32 35 37 39 42 37 13 4 27 29 4 2 2 6 3 9 11 7 6 7 6 11 6 7 8 8 15 15 8 8 3 4 6 14 11 8 11 5 5 7 5
25 26 27 27 28 28 30 32 34 36 34 28 6 3 14 17 3 4 6 8 3 7 7 7 5 9 6 5 5 9 8 12 20 12 7 8 4 4 7 4 5 5 9 17 14 4 9
25 26 25 26 27 27 28 28 30 32 31 24 3 4 4 4 4 6 6 6 7 7 10 8 6 7 6 8 7 8 12 11 15 17 15 7 3 5 5 10 12 13 20 17 9 5 6
25 25 25 25 25 25 26 26 25 28 28 14 3 3 5 4 6 13 6 4 9 4 8 7 7 11 7 4 7 3 13 12 16 12 13 9 4 8 11 13 14 19 18 17 16 13 8
25 24 24 24 24 24 25 24 22 22 24 5 2 3 4 6 9 9 6 3 9 5 6 6 4 8 7 5 7 8 8 8 4 7 11 9 5 9 14 11 12 16 20 21 17 17 16
25 25 25 24 23 23 23 22 20 17 15 5 9 8 1 5 7 6 6 12 12 8 5 7 8 6 6 9 7 5 4 5 9 14 13 5 2 4 8 9 11 13 18 16 18 15 16
26 25 24 24 23 22 22 21 19 16 12 9 14 10 2 4 4 8 15 13 10 12 7 7 6 7 6 9 8 6 8 11 14 16 13 11 7 5 7 8 4 11 7 13 17 17 15
26 25 25 24 24 23 22 20 19 16 15 13 16 7 2 4 5 10 12 12 11 8 7 7 7 5 11 7 4 5 7 11 6 14 18 17 11 5 2 6 13 19 13 8 8 20 19
26 26 26 25 24 23 22 21 19 17 16 15 17 13 6 3 6 12 10 7 9 9 6 8 7 9 4 2 2 1 4 12 6 8 9 15 11 10 3 4 6 3 7 9 14 15 15
27 26 26 25 24 23 22 21 20 18 17 16 18 16 7 5 5 10 9 7 5 5 5 7 6 6 5 0 0 3 11 10 10 11 13 8 8 8 11 11 11 10 12 13 8 3 13
26 26 26 25 24 23 23 22 22 21 20 19 24 18 13 4 9 12 16 12 10 8 9 5 6 4 3 3 3 3 6 8 10 14 14 14 6 3 6 9 10 16 9 6 5 10 13
25 25 25 24 25 24 24 24 23 22 23 22 26 25 21 14 7 21 27 27 25 23 12 9 10 9 3 2 1 0 2 5 15 15 13 7 4 3 4 5 18 20 5 5 2 7 3
Wind_Direction
26 22 19 16 12 10 6 3 0 357 355 352 349 345 342 338 333 328 324 319 319 318 315 317 317 321 346 240 249 220 229 238 258 145 213 221 247 258 241 253 271 269 268 265 252 255 206
22 19 16 13 10 6 4 1 359 356 354 351 347 344 340 336 332 328 324 322 320 316 313 314 311 314 255 248 251 206 151 236 258 229 241 228 236 248 274 265 249 283 290 283 281 215 183
18 14 13 9 7 4 2 359 357 354 352 349 346 342 340 336 333 333 327 322 318 311 305 302 298 256 258 242 238 230 263 229 254 266 272 279 319 224 309 329 283 275 286 291 288 238 168
14 11 9 6 6 3 360 358 356 352 349 347 345 342 341 340 338 334 327 319 313 304 297 283 275 205 251 266 281 271 261 250 247 267 284 287 306 354 360 317 338 330 294 265 281 255 198
12 8 5 5 3 1 359 356 354 351 349 346 345 343 342 341 337 335 328 322 302 288 274 263 266 201 260 303 228 240 244 244 242 236 237 264 278 189 325 305 329 270 259 261 275 237 171
14 11 8 5 1 0 358 356 353 351 348 346 345 343 342 341 341 338 335 334 302 270 263 241 264 281 262 243 237 218 220 223 242 249 210 221 244 202 321 151 223 255 287 258 241 253 226
13 10 10 5 1 359 358 355 352 350 347 344 344 342 342 342 340 345 348 9 4 26 289 221 199 243 279 261 19 220 256 253 243 291 205 230 172 228 233 224 229 262 269 258 269 242 221
9 8 6 4 2 359 356 354 351 349 346 344 343 342 342 340 335 350 33 40 28 325 298 258 257 261 272 286 290 263 247 201 185 235 235 273 225 221 233 246 235 231 249 260 282 271 262
10 8 5 3 1 359 356 352 350 347 345 344 344 343 341 337 325 353 39 17 358 350 261 282 217 224 229 221 245 252 268 238 213 218 235 217 232 220 231 247 255 267 237 257 244 277 284
8 6 4 2 360 357 354 351 349 346 344 344 344 345 341 341 358 342 75 349 343 340 319 244 180 228 193 68 308 231 218 205 213 237 238 235 247 262 263 239 207 235 265 280 296 297 263
4 2 1 360 357 355 353 350 348 347 345 345 345 344 340 353 297 348 328 325 326 288 36 147 113 151 116 167 333 94 201 226 232 234 212 256 277 268 268 250 246 236 257 276 305 300 32
359 358 357 357 356 354 351 348 346 346 345 345 344 342 334 347 330 323 330 327 313 54 255 149 118 189 179 207 231 284 169 194 287 233 264 258 275 245 234 264 246 322 264 291 337 327 262
356 354 353 353 353 353 351 347 346 346 346 343 342 337 326 322 315 327 330 315 25 157 328 5 9 350 344 325 315 241 212 179 195 297 285 284 267 271 268 281 279 50 38 305 296 284 235
352 351 350 349 351 351 350 348 346 346 346 344 342 335 339 316 334 339 327 336 108 312 12 1 336 304 265 283 272 280 264 198 209 238 240 252 282 223 233 218 184 211 180 174 200 223 258
349 348 348 347 348 349 349 349 346 346 347 346 342 344 307 345 343 335 312 53 56 19 3 342 322 303 337 17 350 0 71 30 51 20 13 342 267 292 286 257 210 218 213 211 241 264 263
345 345 345 346 346 347 348 349 345 347 348 348 334 308 356 348 342 310 310 251 68 14 353 349 351 24 342 354 349 356 31 34 8 10 326 330 305 278 314 337 312 214 196 230 237 226 248
341 342 343 344 345 346 346 347 346 346 350 348 338 322 359 349 13 35 51 17 32 8 22 3 1 326 345 4 348 334 26 50 19 3 31 15 354 321 347 204 2 352 352 209 164 182 224
336 338 339 341 343 344 345 346 345 348 353 352 334 347 1 354 45 4 360 332 322 18 21 4 336 359 14 351 329 346 353 62 21 10 7 9 287 277 276 306 304 298 304 307 248 265 238
333 334 335 337 339 341 343 345 345 348 355 347 329 289 354 5 67 336 336 316 47 45 11 33 328 8 330 340 319 333 351 43 16 18 25 344 346 326 333 339 354 349 355 339 343 328 237
327 329 331 332 335 337 339 342 344 347 350 352 318 343 341 9 341 4 345 348 343 75 63 10 295 296 350 14 336 325 340 348 4 348 352 319 266 311 283 309 322 310 323 332 335 302 313
323 324 325 327 331 332 335 339 342 346 347 353 349 327 9 327 332 315 320 344 326 360 52 6 352 347 39 359 328 341 346 349 346 19 2 14 280 293 280 293 306 311 307 312 308 293 284
317 319 320 322 324 327 332 336 342 345 346 331 331 22 338 296 313 323 295 314 313 8 21 335 337 342 355 324 310 327 354 360 308 332 353 340 303 328 300 294 301 303 297 288 276 293 296
312 314 315 317 320 321 326 331 335 339 350 313 345 330 292 285 307 326 321 340 338 344 329 338 340 347 331 310 326 332 310 276 264 276 287 246 267 345 267 326 315 281 256 268 279 273 275
308 311 313 313 315 316 318 323 325 326 322 294 294 309 284 276 301 301 313 317 325 330 323 321 322 319 311 346 327 300 284 279 271 257 239 240 239 278 286 334 261 258 292 273 270 277 291
307 307 307 310 310 310 312 313 315 313 311 303 295 299 276 273 283 300 299 329 318 323 315 315 319 349 1 349 322 312 316 285 274 251 238 229 222 247 246 229 281 293 289 297 291 289 313
304 303 303 304 306 305 307 306 306 303 298 296 290 278 266 288 239 257 298 287 293 294 307 284 280 346 327 337 22 226 277 297 275 311 334 346 212 210 211 245 262 13 312 276 280 263 20
301 300 300 301 301 301 302 302 302 296 293 288 280 275 262 276 244 252 259 275 301 286 274 276 295 340 345 301 325 265 278 276 265 277 300 312 310 249 232 242 262 289 287 315 262 16 346
300 299 299 299 298 298 298 299 298 294 288 283 280 276 256 271 267 257 264 265 273 264 267 270 310 235 210 212 183 239 257 247 253 264 271 267 268 272 261 232 253 20 30 19 327 11 350
299 298 297 296 296 295 294 293 291 287 284 281 277 279 271 250 267 283 273 267 262 262 259 257 250 246 172 198 236 192 250 294 290 282 290 283 265 283 268 263 319 324 268 302 185 276 315